Meacham, OR

7:08 AM PDT on March 30, 2017 (GMT -0700)
Meacham

Weather History for KMEH - December, 2012

Change the Weather History Date:

Saturday, December 29, 2012

  Actual Average Record
Temperature  
Mean Temperature 22 °F -  
Max Temperature 28 °F 34 °F 55 °F (1997)
Min Temperature 15 °F 19 °F -4 °F (2006)
Degree Days  
Heating Degree Days 44    
Moisture  
Dew Point 18 °F    
Average Humidity 82    
Maximum Humidity 96    
Minimum Humidity 69    
Precipitation  
Precipitation 0.01 in - - ()
Sea Level Pressure  
Sea Level Pressure 30.12 in    
Wind  
Wind Speed 0 mph (North)    
Max Wind Speed 0 mph    
Max Gust Speed -    
Visibility 9 miles    
Events Snow    
Averages and records for this station are not official NWS values.
T = Trace of Precipitation, MM = Missing Value Source: NWS Daily Summary

Daily Weather History Graph

Daily Weather History Graph

Search for Another Location

Airport or City:

Trip Planner

Search our weather history database for the weather conditions in past years. The results will help you decide how hot, cold, wet, or windy it might be!

Date:

Astronomy

Dec. 29, 2012 Rise Set
Actual Time 7:33 AM PST 4:18 PM PST
Civil Twilight 6:59 AM PST 4:52 PM PST
Nautical Twilight 6:21 AM PST 5:30 PM PST
Astronomical Twilight 5:45 AM PST 6:06 PM PST
Moon 6:01 PM PST (12/29) 8:05 AM PST (12/29)
Length of Visible Light 9h 53m
Length of Day
8h 44m
Full, 98% of the Moon is Illuminated
Dec 29
Full
Jan 4
Last Quarter
Jan 11
New
Jan 18
First Quarter
Jan 26
Full

Hourly Weather History & Observations

Time (PST) Temp. Dew Point Humidity Pressure Visibility Wind Dir Wind Speed Gust Speed Precip Events Conditions
12:56 AM 21.9 °F 17.1 °F 82% 30.17 in 10.0 mi Calm Calm - N/A   Clear
1:56 AM 21.9 °F 17.1 °F 82% 30.19 in 10.0 mi Calm Calm - N/A   Clear
2:56 AM 21.0 °F 17.1 °F 85% 30.18 in 10.0 mi Calm Calm - N/A   Clear
3:56 AM 21.0 °F 16.0 °F 81% 30.18 in 10.0 mi Calm Calm - N/A   Mostly Cloudy
4:56 AM 19.0 °F 15.1 °F 85% 30.18 in 10.0 mi Calm Calm - N/A   Scattered Clouds
5:56 AM 21.0 °F 16.0 °F 81% 30.20 in 10.0 mi Calm Calm - N/A   Overcast
6:56 AM 19.9 °F 15.1 °F 81% 30.19 in 10.0 mi Calm Calm - N/A   Clear
7:56 AM 21.0 °F 16.0 °F 81% 30.19 in 10.0 mi Calm Calm - N/A   Overcast
8:56 AM 21.0 °F 16.0 °F 81% 30.19 in 10.0 mi Calm Calm - N/A   Scattered Clouds
9:56 AM 24.1 °F 17.1 °F 75% 30.19 in 10.0 mi Calm Calm - N/A   Overcast
10:56 AM 26.1 °F 18.0 °F 71% 30.17 in 10.0 mi Calm Calm - N/A   Overcast
11:56 AM 27.0 °F 19.0 °F 72% 30.14 in 10.0 mi Calm Calm - N/A   Overcast
12:56 PM 28.0 °F 19.0 °F 69% 30.11 in 10.0 mi Calm Calm - N/A   Overcast
1:56 PM 28.0 °F 19.0 °F 69% 30.09 in 10.0 mi Calm Calm - N/A   Overcast
2:56 PM 28.0 °F 19.0 °F 69% 30.09 in 10.0 mi Calm Calm - N/A   Overcast
3:56 PM 27.0 °F 19.9 °F 75% 30.08 in 10.0 mi Calm Calm - N/A   Overcast
4:56 PM 26.1 °F 21.9 °F 84% 30.09 in 10.0 mi Calm Calm - N/A   Overcast
5:56 PM 25.0 °F 21.0 °F 85% 30.10 in 10.0 mi Calm Calm - N/A   Overcast
6:29 PM 24.8 °F 21.2 °F 86% 29.99 in 2.5 mi Calm Calm - 0.00 in Snow Light Snow
6:40 PM 24.8 °F 19.4 °F 80% 29.99 in 3.0 mi Calm Calm - 0.00 in Snow Light Snow
6:47 PM 24.8 °F 19.4 °F 80% 29.99 in 5.0 mi Calm Calm - 0.00 in Snow Light Snow
6:56 PM 24.1 °F 19.9 °F 84% 30.11 in 7.0 mi Calm Calm - 0.00 in   Overcast
7:56 PM 23.0 °F 19.9 °F 88% 30.12 in 3.0 mi Calm Calm - 0.00 in Snow Light Snow
8:56 PM 21.9 °F 19.0 °F 89% 30.13 in 4.0 mi Calm Calm - 0.01 in Snow Light Snow
9:56 PM 19.0 °F 18.0 °F 96% 30.13 in 6.0 mi Calm Calm - 0.00 in   Overcast
10:56 PM 16.0 °F 14.0 °F 92% 30.17 in 9.0 mi Calm Calm - N/A   Overcast
11:02 PM 15.8 °F 14.0 °F 93% 30.05 in 10.0 mi Calm Calm - N/A   Overcast
11:10 PM 17.6 °F 14.0 °F 86% 30.05 in 10.0 mi Calm Calm - N/A   Overcast
11:17 PM 15.8 °F 12.2 °F 86% 30.05 in 10.0 mi Calm Calm - N/A   Overcast
11:56 PM 18.0 °F 15.1 °F 88% 30.16 in 10.0 mi Calm Calm - N/A   Overcast